SCP
0 0 0 0 0 0 0 0 0 0 0 0 0 0 0 0 0 0 0 0 0 0 0 0 0 0 0 0 0 0 0 0 -0 0 0 0 0 0 0 0 0 0 0
0 0 0 0 0 0 0 0 0 0 0 0 0 0 0 0 0 0 0 0 0 0 0 0 0 0 0 0 0 0 0 -0 0 0 0 0 0 0 0 0 0 0 0
0 0 0 0 0 0 0 0 0 0 0 0 0 0 0 0 0 0 0 0 0 0 0 0 0 0 0 0 0 0 -0 -0 0 0 0 0 0 0 0 0 0 0 0
0 0 0 0 0 0 0 0 0 0 0 0 0 0 0 0 0 0 0 0 0 0 0 0 0 0 0 0 0 0 0 -0 0 0 0 0 0 0 0 0 0 0 0
0 0 0 0 0 0 0 0 0 0 0 0 0 0 0 0 0 0 0 0 0 0 0 0 0 0 0 0 0 0 0 0 0 0 0 0 0 0 0 0 0 0 0
0 0 0 0 0 0 0 0 0 0 0 0 0 0 0 0 0 0 0 0 0 0 0 0 0 0 0 0 0 0 0 0 0 0 0 0 0 0 0 0 0 0 0
0 0 0 0 0 0 0 0 0 0 0 0 0 0 0 0 0 0 0 0 0 0 0 0 0 0 0 0 0 0 0 0 0 0 0 0 0 0 0 0 0 0 0
0 0 0 0 0 0 0 0 0 0 0 0 0 0 0 0 0 0 0 0 0 0 0 0 0 0 0 0 0 0 0 0 0 0 0 0 0 0 0 0 0 0 0
0 0 0 0 0 0 0 0 0 0 0 0 0 0 0 0 0 0 0 0 0 0 0 0 0 0 0 0 0 0 0 0 0 0 0 0 0 0 0 0 0 0 0
0 0 0 0 0 0 0 0 0 0 0 0 0 0 0 0 0 0 0 0 0 0 0 0 0 0 0 0 0 0 0 0 0 0 0 0 0 0 0 0 0 0 0
0 0 0 0 0 0 0 0 0 0 0 0 0 0 0 0 0 0 0 0 0 0 0 0 0 0 0 0 0 0 0 0 0 0 0 0 0 0 0 0 0 0 0
0 0 0 0 0 0 0 0 0 0 0 0 0 0 0 0 0 0 0 0 0 0 0 0 0 0 0 0 0 0 0 0 0 0 0 0 0 0 0 0 0 0 0
0 0 0 0 0 0 0 0 0 0 0 0 0 0 0 0 0 0 0 0 0 0 0 0 0 0 0 0 0 0 0 0 0 0 0 0 0 0 0 0 0 0 0
0 0 0 0 0 0 0 0 0 0 0 0 0 0 0 0 0 0 0 0 0 0 0 0 0 0 0 0 0 0 0 0 0 0 0 0 0 0 0 0 0 0 0
0 0 0 0 0 0 0 0 0 0 0 0 0 0 0 0 0 0 0 0 0 0 0 0 0 0 0 0 0 0 0 0 0 0 0 0 0 0 0 0 0 0 0
0 0 0 0 0 0 0 0 0 0 0 0 0 0 0 0 0 0 0 0 0 0 0 0 0 0 0 0 0 0 0 0 0 0 0 0 0 0 0 0 0 0 0
0 0 0 0 0 0 0 0 0 0 0 0 0 0 0 0 0 0 0 0 0 0 0 0 0 0 0 0 0 0 0 0 0 0 0 0 0 0 0 0 0 0 0
0 0 0 0 0 0 0 0 0 0 0 0 0 0 0 0 0 0 0 0 0 0 0 0 0 0 0 0 0 0 0 0 0 0 0 0 0 0 0 0 0 0 0
0 0 0 0 0 0 0 0 0 0 0 0 0 0 0 0 0 0 0 0 0 0 0 0 0 0 0 0 0 0 0 0 0 0 0 0 0 0 0 0 0 0 0
0 0 0 0 0 0 0 0 0 0 0 0 0 0 0 0 0 0 0 0 0 0 0 0 0 0 0 0 0 0 0 0 0 0 0 0 0 0 0 0 0 0 0
0 0 0 0 0 0 0 0 0 0 0 0 0 0 0 0 0 0 0 0 0 0 0 0 0 0 0 0 0 0 0 0 0 0 0 0 0 0 0 0 0 0 0
0 0 0 0 0 0 0 0 0 0 0 0 0 0 0 0 0 0 0 0 0 0 0 0 0 0 0 0 0 0 0 0 0 0 0 0 0 0 0 0 0 0 0
0 0 0 0 0 0 0 0 0 0 0 0 0 0 0 0 0 0 0 0 0 0 0 0 0 0 0 0 0 0 0 0 0 0 0 0 0 0 0 0 0 0 0
0 0 0 0 0 0 0 0 0 0 0 0 0 0 0 0 0 0 0 0 0 0 0 0 0 0 0 0 0 0 0 0 0 0 0 0 0 0 0 0 0 0 0
0 0 0 0 0 0 0 0 0 0 0 0 0 0 0 0 0 0 0 0 0 0 0 0 0 0 0 0 0 0 0 0 0 0 0 0 0 0 0 0 0 0 0
0 0 0 0 0 0 0 0 0 0 0 0 0 0 0 0 0 0 0 0 0 0 0 0 0 0 0 0 0 0 0 0 0 0 0 0 0 0 0 0 0 0 0
Wind_Speed
12 10 9 8 8 7 7 7 7 6 7 7 7 7 7 8 8 7 8 8 9 9 9 9 10 9 8 7 7 7 7 7 10 11 8 8 9 9 10 8 9 9 10
12 10 10 8 8 7 7 7 7 7 7 7 7 7 8 8 8 8 9 10 9 10 11 10 11 10 10 8 7 8 8 7 8 12 10 8 8 9 9 10 9 9 8
11 11 10 9 8 8 8 7 7 7 7 7 7 8 9 9 9 9 9 10 10 11 11 11 12 11 11 10 10 9 7 7 7 9 10 8 6 7 9 10 10 7 9
12 11 11 11 10 9 8 7 7 7 7 7 7 8 9 9 9 10 10 11 11 11 12 12 12 12 13 12 10 9 8 7 7 7 8 8 7 7 6 8 9 7 9
13 13 13 10 9 8 7 7 7 7 8 7 7 8 8 8 8 10 10 10 10 11 11 11 11 15 18 15 11 8 7 6 6 7 8 8 8 7 7 6 9 9 9
14 14 11 9 9 9 8 7 7 7 7 7 7 8 9 8 15 20 16 8 8 9 10 10 11 13 17 21 21 18 13 8 7 6 6 8 9 8 7 8 8 9 7
14 12 11 11 10 9 8 7 7 7 7 7 7 7 9 11 18 19 20 11 7 7 9 9 9 10 15 10 14 17 15 17 16 8 6 8 8 8 8 9 8 8 9
14 13 12 11 11 9 8 8 8 6 6 7 7 7 8 11 17 18 19 9 6 7 8 8 10 10 12 13 9 8 8 8 10 8 6 8 8 8 8 7 8 9 9
15 15 14 12 11 10 9 9 7 6 7 6 6 7 7 10 16 17 18 5 6 7 8 8 9 9 17 19 8 6 6 7 10 14 14 13 16 16 12 5 6 7 8
17 15 13 12 12 11 10 9 6 6 7 6 6 6 7 8 14 16 17 5 6 7 6 7 13 15 18 17 5 4 7 7 6 7 9 11 9 10 13 6 5 6 6
13 12 12 12 12 11 9 7 6 6 6 5 6 6 7 8 11 14 16 6 6 6 6 5 7 18 18 15 11 5 9 7 3 6 6 6 5 5 5 5 5 5 6
11 12 12 12 10 9 8 7 6 6 6 6 6 6 5 6 9 11 15 14 12 6 6 6 8 16 15 14 10 11 13 10 4 5 5 5 6 6 6 6 7 7 8
14 13 12 11 10 9 9 8 6 6 5 5 5 5 5 4 6 13 14 15 15 8 5 12 14 15 13 9 12 14 10 4 4 5 5 6 5 6 7 6 7 7 8
15 14 12 11 10 9 8 7 6 6 6 5 5 5 5 4 5 5 6 7 10 8 6 8 12 13 10 9 9 7 4 5 5 5 5 5 5 6 6 6 6 6 6
14 13 12 11 10 10 9 8 8 7 7 6 6 5 4 5 7 10 7 4 4 4 4 3 3 5 5 4 4 4 4 5 5 5 5 5 6 6 7 6 5 5 5
14 13 11 10 9 8 8 7 12 11 13 13 11 8 7 9 11 12 12 12 12 11 5 3 4 4 5 5 5 5 5 5 5 5 5 5 6 6 7 6 6 6 6
15 14 11 10 10 9 8 8 6 8 11 11 11 10 9 9 10 10 10 9 9 8 3 3 4 5 5 5 5 5 5 5 5 5 5 5 6 6 7 7 7 6 6
14 15 13 10 10 9 9 8 7 6 5 4 6 8 8 7 7 8 7 5 4 3 2 3 4 5 5 5 5 5 5 5 4 4 5 5 5 6 6 7 7 8 7
14 11 11 9 9 9 8 8 7 7 5 4 3 4 6 5 5 5 4 1 2 3 3 4 4 4 5 5 5 5 5 5 5 4 4 5 5 5 6 7 7 11 9
12 18 15 10 9 9 8 8 7 7 6 5 5 4 2 2 2 2 2 2 2 3 3 4 4 4 4 4 5 5 5 4 5 4 4 4 5 5 6 7 7 7 7
10 14 21 12 10 10 9 9 8 7 6 6 5 5 6 4 3 3 2 2 2 3 3 4 4 4 4 4 4 5 5 5 4 4 4 4 5 5 5 6 7 7 7
9 10 11 10 10 9 9 8 8 7 7 7 4 5 7 4 3 3 3 3 3 3 3 3 4 4 4 4 4 5 5 5 4 4 4 4 4 5 5 6 6 6 7
9 10 10 10 9 12 11 8 8 8 7 6 5 5 4 4 3 3 3 3 2 3 3 3 4 4 4 4 4 4 4 5 4 3 4 4 4 5 5 6 7 7 7
11 11 11 11 10 10 9 9 8 8 7 7 6 5 5 4 4 3 3 2 2 3 3 3 3 5 7 6 4 4 4 4 3 2 3 3 4 4 5 5 6 7 7
10 11 11 10 11 10 10 9 9 8 8 7 6 6 5 4 4 3 3 2 2 3 4 3 3 4 6 8 7 5 6 6 4 2 1 2 3 4 5 5 5 6 6
10 11 10 9 9 10 10 9 9 9 8 7 6 6 5 5 4 3 3 2 2 3 3 3 4 5 7 6 6 6 6 6 6 5 1 1 2 4 4 4 6 6 6
Wind_Direction
194 197 200 201 205 210 218 228 234 240 243 249 254 259 262 264 263 262 264 268 267 272 275 276 277 278 279 281 279 276 275 276 285 295 295 299 299 302 308 305 293 285 287
194 194 200 201 203 212 223 231 233 240 244 247 253 260 264 268 264 263 268 273 268 271 274 274 276 278 277 278 277 276 276 275 280 295 303 304 303 303 304 304 306 303 295
191 193 199 202 206 216 224 229 233 239 247 252 254 259 265 267 267 265 264 267 266 266 268 269 272 274 275 276 274 272 272 280 277 286 297 296 294 301 308 306 303 291 297
191 195 202 206 209 214 220 226 232 238 246 253 256 260 264 267 268 269 267 266 265 265 265 266 267 268 269 273 273 268 270 275 277 282 291 299 298 301 301 310 313 311 307
193 199 207 206 205 209 217 226 232 238 248 252 260 266 268 269 267 266 262 262 261 265 268 268 269 276 281 282 282 273 268 267 276 285 292 299 304 311 310 304 307 311 305
196 203 202 198 202 210 217 223 232 241 250 255 260 265 270 275 288 294 293 271 266 271 276 276 276 283 288 294 296 296 294 286 280 276 285 292 293 294 296 299 305 313 309
198 201 197 198 205 211 216 221 231 240 247 255 260 263 267 276 292 297 299 296 276 278 279 283 287 285 296 287 285 291 294 296 298 292 280 276 281 284 287 291 293 293 286
197 200 198 198 206 207 211 224 232 234 241 250 257 262 268 279 296 302 304 304 284 279 276 276 278 281 284 286 272 269 267 276 285 288 265 264 271 274 270 280 289 291 282
200 201 200 198 202 204 214 223 226 230 242 246 253 261 268 281 298 303 308 290 283 284 278 278 284 278 289 299 295 281 281 278 291 297 298 299 301 304 303 304 303 302 301
204 201 196 195 199 206 213 218 219 225 240 248 256 258 263 271 291 304 310 289 287 287 281 281 296 300 304 313 298 275 282 280 286 296 300 304 301 300 307 301 284 289 294
196 190 191 195 200 204 208 210 215 227 239 248 259 263 262 269 290 304 309 303 290 293 294 290 290 307 315 321 324 296 297 313 292 288 288 290 292 287 286 279 263 257 265
180 187 192 194 197 201 202 209 211 219 236 249 258 270 260 267 285 297 307 312 313 300 296 291 293 312 324 327 325 318 325 334 312 304 303 301 301 298 291 284 275 263 253
181 190 192 192 196 196 197 204 209 213 226 244 248 263 271 264 276 298 307 312 315 313 295 309 319 327 332 329 322 328 337 326 306 306 306 302 296 290 291 292 288 279 272
187 190 188 190 195 198 200 202 207 212 219 233 243 253 264 269 270 277 279 290 301 306 305 313 324 329 328 323 325 326 318 304 309 300 299 299 300 301 300 300 301 304 299
189 190 189 192 193 197 202 205 207 211 209 217 226 231 244 261 272 292 303 289 291 295 314 311 313 318 320 316 314 309 304 308 313 305 302 305 308 309 308 307 300 302 295
188 190 190 190 191 193 198 210 225 224 235 241 242 240 245 263 288 303 313 320 326 330 340 320 315 316 317 317 315 313 309 310 307 304 304 305 308 310 310 309 308 305 303
192 188 187 188 189 191 193 198 209 226 235 241 247 256 261 277 292 305 313 324 330 339 333 303 303 306 309 309 306 304 302 304 303 302 304 306 307 309 311 312 314 313 307
194 191 187 188 188 189 190 193 195 197 208 229 242 253 264 276 291 304 318 334 327 332 294 290 296 300 304 303 304 304 303 305 305 304 304 305 306 310 313 314 314 314 311
192 190 187 184 186 186 186 186 190 196 202 208 213 248 256 268 283 299 323 309 286 297 298 296 295 298 300 302 304 303 302 302 304 305 304 306 307 309 311 312 312 316 318
195 195 185 182 183 183 184 186 189 193 197 203 213 218 215 212 230 266 269 259 268 280 289 293 296 296 299 299 302 303 302 300 303 303 303 305 306 306 309 312 314 315 313
191 195 193 186 185 185 186 188 187 187 193 202 211 214 203 191 215 234 245 252 258 269 281 288 292 295 296 295 298 301 302 301 299 301 306 306 308 309 310 312 314 315 315
187 187 187 184 184 186 187 187 185 187 192 198 202 215 217 195 205 225 237 250 254 258 267 279 285 286 288 293 298 301 303 304 302 303 306 307 308 312 316 320 323 325 325
183 185 186 184 182 190 189 186 186 187 190 192 192 195 199 197 206 219 232 243 253 264 273 279 285 292 296 295 292 290 294 301 297 294 304 311 315 318 321 323 325 328 330
184 186 187 184 183 187 187 187 188 188 186 187 189 192 194 198 204 215 223 235 251 266 274 280 282 292 301 306 301 293 286 291 285 288 297 309 316 318 322 326 328 333 336
185 187 189 186 185 187 187 186 187 186 185 185 187 188 189 192 199 208 213 225 249 270 281 286 284 293 302 309 309 304 313 326 333 337 300 315 318 319 323 328 333 339 345
186 189 189 187 187 187 187 186 186 185 184 184 182 182 184 188 193 198 202 215 247 271 282 288 287 294 302 306 309 319 334 345 351 360 33 329 327 329 334 337 341 348 353